This is the latest recevied weather packets stored in our database for station/object WB0OCV. If no packets are shown the sender has not sent any weather packets the latest 10 day(s).
| Time | Temp. | Humidity | Pressure | Rain* | Wind** | Luminosity | Snow |
|---|---|---|---|---|---|---|---|
| 1778072954 | 18.33° C | 76% | 1015.2 hPa | 0 mm | - | 84 W/m² | - |
| 1778072650 | 17.78° C | 77% | 1015.2 hPa | 0 mm | - | 77 W/m² | - |
| 1778072348 | 17.78° C | 77% | 1015.3 hPa | 0 mm | - | 74 W/m² | - |
| 1778072046 | 17.78° C | 77% | 1015.2 hPa | 0 mm | - | 73 W/m² | - |
| 1778071744 | 17.78° C | 78% | 1015.3 hPa | 0 mm | - | 82 W/m² | - |
| 1778071441 | 17.78° C | 79% | 1015.4 hPa | 0 mm | - | 118 W/m² | - |
| 1778071139 | 17.78° C | 79% | 1015.4 hPa | 0 mm | - | 74 W/m² | - |
| 1778070837 | 17.78° C | 78% | 1015.4 hPa | 0 mm | - | 71 W/m² | - |
| 1778070534 | 17.22° C | 79% | 1015.4 hPa | 0 mm | - | 111 W/m² | - |
| 1778070230 | 17.22° C | 79% | 1015.4 hPa | 0 mm | - | 182 W/m² | - |
| 1778069929 | 17.22° C | 80% | 1015.6 hPa | 0 mm | - | 155 W/m² | - |
| 1778069626 | 16.67° C | 81% | 1015.6 hPa | 0 mm | - | 67 W/m² | - |
| 1778069323 | 16.67° C | 82% | 1015.7 hPa | 0 mm | - | 63 W/m² | - |
| 1778069020 | 16.11° C | 83% | 1015.7 hPa | 0 mm | - | 82 W/m² | - |
| 1778068717 | 16.11° C | 83% | 1015.7 hPa | 0 mm | - | 60 W/m² | - |
| 1778068416 | 16.11° C | 84% | 1015.6 hPa | 0 mm | - | 53 W/m² | - |
| 1778068113 | 16.11° C | 84% | 1015.6 hPa | 0 mm | - | 44 W/m² | - |
| 1778067811 | 16.11° C | 83% | 1015.6 hPa | 0 mm | - | 67 W/m² | - |
| 1778067509 | 16.11° C | 83% | 1015.5 hPa | 0 mm | - | 65 W/m² | - |
| 1778067206 | 16.67° C | 84% | 1015.8 hPa | 0 mm | - | 88 W/m² | - |
| 1778066903 | 16.11° C | 83% | 1015.7 hPa | 0 mm | - | 99 W/m² | - |
| 1778066600 | 16.11° C | 83% | 1015.6 hPa | 0 mm | - | 107 W/m² | - |
| 1778066298 | 16.11° C | 84% | 1015.8 hPa | 0 mm | - | 108 W/m² | - |
| 1778065996 | 16.11° C | 84% | 1015.6 hPa | 0 mm | - | 98 W/m² | - |
| 1778065693 | 15.56° C | 85% | 1015.8 hPa | 0 mm | - | 88 W/m² | - |
* Rain latest hour (hover to see other rain measurements)
** Current wind speed in m/s (hover to see current wind gust speed)